カタログに戻る

NAVSTAR 34

USA 94

運用中ナビゲーションMEO
NORAD 22779·PAYLOAD·🇺🇸 United States

打ち上げ Aug 30, 1993 から Cape Canaveral Space Force Station

Loading…

次のパス (今後24時間)

TLE

最新Source: Space-Track

元期: Sep 13, 2026, 12:13 UTC

1 22779U 93054A   26256.50905917  .00000007  00000-0  00000-0 0  9992
2 22779  53.2796 214.5854 0051577 255.4158 241.3040  1.89129788237699

AllMySatでNAVSTAR 34をリアルタイム追跡

Download on the App Store